This demonstration page uses our WeatherBlox Daily Observations layout. Learn more.

Left ArrowRight Arrow

36.17497, -115.13722

Hourly Observations for December 18, 2019

Temp ( °F °C ) Dew Point ( °F °C ) Humidity (%) Winds ( mph kmh ) Pressure ( in mb ) Visibility ( mi km ) Precip ( " mm )
12:53 am 00:53 Clear 43 6.1 14 -10 31 31 SSW 7 11 30.32 1027 10 16 0.00 0.00
1:53 am 01:53 Clear 42 5.6 13 -10.6 30 30 SSW 7 11 30.32 1027 10 16 0.00 0.00
2:53 am 02:53 Clear 42 5.6 13 -10.6 30 30 S 6 9 30.29 1026 10 16 0.00 0.00
3:53 am 03:53 Clear 40 4.4 14 -10 35 35 S 9 15 30.27 1025 10 16 0.00 0.00
4:53 am 04:53 Clear 39 3.9 14 -10 36 36 SE 7 11 30.27 1025 10 16 0.00 0.00
5:53 am 05:53 Clear 40 4.4 12 -11.1 32 32 SW 5 7 30.27 1025 10 16 0.00 0.00
6:53 am 06:53 Sunny 39 3.9 13 -10.6 34 34 Calm 30.26 1025 10 16 0.00 0.00
7:53 am 07:53 Sunny 40 4.4 16 -8.9 38 38 Calm 30.26 1025 10 16 0.00 0.00
8:53 am 08:53 Sunny 41 5 18 -7.8 39 39 Calm 30.27 1025 10 16 0.00 0.00
9:53 am 09:53 Sunny 44 6.7 14 -10 30 30 SE 3 6 30.25 1025 10 16 0.00 0.00
10:53 am 10:53 Sunny 46 7.8 15 -9.4 29 29 SE 3 6 30.22 1023 10 16 0.00 0.00
11:53 am 11:53 Sunny 47 8.3 14 -10 26 26 S 6 9 30.18 1022 10 16 0.00 0.00
12:53 pm 12:53 Sunny 48 8.9 13 -10.6 24 24 SE 5 7 30.13 1020 10 16 0.00 0.00
1:53 pm 13:53 Sunny 49 9.4 14 -10 25 25 S 5 7 30.12 1020 10 16 0.00 0.00
2:53 pm 14:53 Sunny 49 9.4 15 -9.4 26 26 ESE 6 9 30.11 1020 10 16 0.00 0.00
3:53 pm 15:53 Sunny 49 9.4 14 -10 25 25 Calm 30.11 1020 10 16 0.00 0.00
4:53 pm 16:53 Clear 49 9.4 15 -9.4 26 26 WSW 5 7 30.11 1020 10 16 0.00 0.00
5:53 pm 17:53 Clear 48 8.9 16 -8.9 28 28 N 3 6 30.11 1020 10 16 0.00 0.00
6:53 pm 18:53 Clear 46 7.8 19 -7.2 34 34 NNW 6 9 30.12 1020 10 16 0.00 0.00
7:53 pm 19:53 Clear 46 7.8 18 -7.8 32 32 NW 6 9 30.13 1020 10 16 0.00 0.00
8:53 pm 20:53 Mostly Cloudy 45 7.2 18 -7.8 34 34 N 5 7 30.13 1020 10 16 0.00 0.00
9:53 pm 21:53 Clear 44 6.7 19 -7.2 37 37 W 5 7 30.13 1020 10 16 0.00 0.00
10:53 pm 22:53 Clear 43 6.1 17 -8.3 35 35 WNW 10 17 30.13 1020 10 16 0.00 0.00
11:53 pm 23:53 Clear 42 5.6 17 -8.3 36 36 WNW 3 6 30.12 1020 10 16 0.00 0.00

Powered by AerisWeather